Regional Weather Roundup
Issued by NWS Albany, NY

Home | Current Version | Previous Version | Text Only | Print | Product List | Glossary On
Versions: 1 2 3 4 5 6 7 8 9 10 11 12 13 14 15 16 17 18 19 20 21 22 23 24 25 26 27 28 29 30 31 32 33 34 35 36 37 38 39 40 41 42 43 44 45 46 47 48 49 50
386
ASUS41 KALY 230510
RWRALY

NEW YORK STATE HOURLY WEATHER ROUNDUP
NATIONAL WEATHER SERVICE ALBANY NY
100 AM EDT TUE MAY 23 2017

NOTE: "FAIR" INDICATES FEW OR NO CLOUDS BELOW 12,000 FEET WITH NO
SIGNIFICANT WEATHER AND/OR NO OBSTRUCTIONS TO VISIBILITY.

NYZ032-033-038>043-046>054-057>066-NYZ062>081-082-084-230600-
EAST


CITY           SKY/WX    TMP DP  RH WIND       PRES   REMARKS
ALBANY         CLOUDY    56  48  74 NW5       29.98S
GLENS FALLS    NOT AVBL
POUGHKEEPSIE   FOG       56  56 100 CALM      29.96S VSB 1
NEWBURGH       CLOUDY    57  57 100 CALM      29.98S
MONTGOMERY     CLOUDY    58  56  93 CALM      29.96F
WHITE PLAINS   MOCLDY    57  56  96 NW8       29.95S
ISLIP          CLOUDY    59  59 100 N7        29.93S FOG
NEW YORK CITY  CLOUDY    61  57  87 NW9       29.95R
CENTRAL PARK   CLOUDY    60  58  92 W6        29.98S
$$

NYZ005>009-017-018-044>046-055-056-230600-
CENTRAL


CITY           SKY/WX    TMP DP  RH WIND       PRES   REMARKS
FULTON         CLOUDY    44  43  96 CALM      29.99F
SYRACUSE       CLOUDY    50  43  77 SW3       29.99F
ROME           CLOUDY    44  44 100 CALM      30.01F
ELMIRA         CLOUDY    46  43  89 CALM      30.01F
BINGHAMTON     CLEAR     47  41  80 CALM      30.02S
MONTICELLO     CLOUDY    55  55 100 W5        29.99F
$$

NYZ026>034-041>043-087-230600-
NORTH


CITY           SKY/WX    TMP DP  RH WIND       PRES   REMARKS
WATERTOWN      PTCLDY    49  45  86 S3        29.98S
FORT DRUM      NOT AVBL
OGDENSBURG     FAIR      53  48  84 SW7       29.94S
MASSENA        CLEAR     50  47  89 SW9       29.95R
SARANAC LAKE   CLOUDY    46  45  96 SW8       29.95S
PLATTSBURGH    CLOUDY    56  47  71 VRB3      29.94S
$$

NYZ001>004-010>016-019>021-085-230600-
WEST


CITY           SKY/WX    TMP DP  RH WIND       PRES   REMARKS
NIAGARA FALLS  CLEAR     52  43  71 S3        29.96F
BUFFALO        CLEAR     49  42  77 S6        29.97F
DUNKIRK        PTCLDY    53  44  71 S8        29.98F
JAMESTOWN      CLEAR     48  41  76 S5        30.01S
WELLSVILLE     CLEAR     50  40  68 CALM      30.02F
ROCHESTER      CLEAR     50  43  77 SW7       29.98F
PENN YAN       CLOUDY    50  41  71 SW6       30.00F
$$

             KEY
       WCI = WIND CHILL INDEX
       VSB = VISIBILITY
       HX  = HEAT INDEX
$$




USA.gov is the U.S. government's official web portal to all federal, state and local government web resources and services.